Weather History for Mullan Pass, ID

Change the Weather History Date:

Sunday, March 23, 2014

  Actual Average (K3TH) Record (K3TH)
Temperature  
Mean Temperature 26 °F -  
Max Temperature 32 °F 48 °F 66 °F (1999)
Min Temperature 21 °F 32 °F 27 °F (2001)
Degree Days  
Heating Degree Days 40    
Moisture  
Dew Point 20 °F    
Average Humidity 86    
Maximum Humidity 100    
Minimum Humidity 61    
Precipitation  
Precipitation 0.18 in - - ()
Sea Level Pressure  
Sea Level Pressure 30.13 in    
Wind  
Wind Speed 4 mph (NW)    
Max Wind Speed 8 mph    
Max Gust Speed -    
Visibility 5 miles    
Events Fog , Snow    
Averages and records for this station are not official NWS values.
T = Trace of Precipitation, MM = Missing Value Source: NWS Daily Summary

Daily Weather History Graph

Daily Weather History Graph

Search for Another Location

Airport:

Trip Planner

Search our weather history database for the weather conditions in past years. The results will help you decide how hot, cold, wet, or windy it might be!

Date:

Astronomy

Mar. 23, 2014 Rise Set
Actual Time 6:39 AM PDT 6:59 PM PDT
Civil Twilight 6:08 AM PDT 7:30 PM PDT
Nautical Twilight 5:32 AM PDT 8:06 PM PDT
Astronomical Twilight 4:55 AM PDT 8:44 PM PDT
Moon 1:40 AM PDT (3/23) 11:05 AM PDT (3/23)
Length of Visible Light 13h 21m
Length of Day
12h 20m
Waning Gibbous, 53% of the Moon is Illuminated
Mar 23
Waning Gibbous
Mar 23
Last Quarter
Mar 30
New
Apr 7
First Quarter
Apr 15
Full

Hourly Weather History & Observations

Time (PDT) Temp. Windchill Dew Point Humidity Pressure Visibility Wind Dir Wind Speed Gust Speed Precip Events Conditions
12:21 AM 21.2 °F 13.6 °F 19.4 °F 93% 30.01 in 1.5 mi Variable 5.8 mph - 0.01 in Snow Light Snow
12:34 AM 21.2 °F 13.6 °F 19.4 °F 93% 30.01 in 1.0 mi NW 5.8 mph - 0.02 in Snow Light Snow
12:53 AM 21.0 °F 16.2 °F 19.9 °F 96% 30.14 in 1.0 mi Variable 3.5 mph - 0.02 in Snow Light Snow
1:53 AM 21.0 °F 16.2 °F 19.9 °F 96% 30.14 in 1.2 mi Variable 3.5 mph - 0.02 in Snow Light Snow
2:28 AM 21.2 °F - 19.4 °F 93% 30.00 in 0.8 mi Calm Calm - 0.00 in Snow Light Snow
2:53 AM 21.0 °F 16.2 °F 19.9 °F 96% 30.12 in 0.5 mi NW 3.5 mph - 0.02 in Fog , Snow Snow
3:24 AM 21.2 °F 16.4 °F 19.4 °F 93% 30.00 in 1.5 mi Variable 3.5 mph - 0.01 in Snow Light Snow
3:33 AM 21.2 °F 16.4 °F 19.4 °F 93% 30.00 in 1.2 mi NW 3.5 mph - 0.01 in Snow Light Snow
3:53 AM 21.0 °F 13.4 °F 19.9 °F 96% 30.12 in 0.8 mi Variable 5.8 mph - 0.02 in Snow Light Snow
4:53 AM 21.9 °F 15.7 °F 19.9 °F 92% 30.12 in 0.8 mi NW 4.6 mph - 0.06 in Snow Light Snow
5:53 AM 21.9 °F 17.2 °F 19.9 °F 92% 30.14 in 0.5 mi Variable 3.5 mph - 0.04 in Fog , Snow Snow
6:06 AM 21.2 °F 14.9 °F 19.4 °F 93% 30.02 in 0.5 mi Variable 4.6 mph - 0.00 in Fog , Snow Snow
6:23 AM 21.2 °F 13.6 °F 19.4 °F 93% 30.02 in 1.0 mi Variable 5.8 mph - 0.00 in Snow Light Snow
6:41 AM 21.2 °F 14.9 °F 19.4 °F 93% 30.03 in 0.8 mi NW 4.6 mph - 0.00 in Snow Light Snow
6:53 AM 21.9 °F 15.7 °F 21.0 °F 96% 30.17 in 0.5 mi NNW 4.6 mph - 0.00 in Fog Light Freezing Fog
7:19 AM 21.2 °F 13.6 °F 21.2 °F 100% 30.03 in 0.2 mi Variable 5.8 mph - 0.00 in Fog , Snow Light Snow
7:38 AM 21.2 °F 12.6 °F 19.4 °F 93% 30.03 in 0.5 mi NW 6.9 mph - 0.00 in Fog Light Freezing Fog
7:53 AM 21.0 °F 13.4 °F 19.9 °F 96% 30.19 in 1.0 mi NW 5.8 mph - 0.00 in   Mist
8:03 AM 21.2 °F - 19.4 °F 93% 30.04 in 0.5 mi Calm Calm - N/A Fog Light Freezing Fog
8:09 AM 21.2 °F 16.4 °F 19.4 °F 93% 30.04 in 1.8 mi Variable 3.5 mph - N/A   Overcast
8:16 AM 21.2 °F - 19.4 °F 93% 30.04 in 5.0 mi Calm Calm - N/A   Overcast
8:41 AM 21.2 °F - 21.2 °F 100% 30.06 in 1.8 mi Calm Calm - N/A   Overcast
8:51 AM 23.0 °F 18.4 °F 21.2 °F 93% 30.06 in 1.0 mi Variable 3.5 mph - N/A   Mist
8:53 AM 23.0 °F 18.4 °F 21.0 °F 92% 30.21 in 1.0 mi Variable 3.5 mph - N/A   Mist
8:59 AM 23.0 °F 18.4 °F 21.2 °F 93% 30.06 in 2.0 mi Variable 3.5 mph - N/A   Overcast
9:06 AM 23.0 °F 17.0 °F 21.2 °F 93% 30.06 in 6.0 mi Variable 4.6 mph - N/A   Overcast
9:53 AM 25.0 °F 19.3 °F 23.0 °F 92% 30.22 in 5.0 mi Variable 4.6 mph - N/A   Overcast
10:39 AM 24.8 °F 19.1 °F 23.0 °F 93% 30.09 in 10.0 mi Variable 4.6 mph - N/A   Mostly Cloudy
10:53 AM 26.1 °F - 23.0 °F 88% 30.23 in 10.0 mi Calm Calm - N/A   Mostly Cloudy
11:05 AM 26.6 °F - 24.8 °F 93% 30.10 in 10.0 mi Calm Calm - N/A   Mostly Cloudy
11:22 AM 26.6 °F 20.0 °F 21.2 °F 80% 30.10 in 10.0 mi WNW 5.8 mph - N/A   Scattered Clouds
11:53 AM 28.9 °F 25.2 °F 24.1 °F 82% 30.24 in 10.0 mi Variable 3.5 mph - N/A   Clear
12:53 PM 28.9 °F 25.2 °F 23.0 °F 78% 30.23 in 10.0 mi Variable 3.5 mph - N/A   Scattered Clouds
1:03 PM 28.4 °F - 21.2 °F 74% 30.11 in 10.0 mi Calm Calm - N/A   Mostly Cloudy
1:53 PM 28.9 °F 25.2 °F 21.9 °F 75% 30.23 in 10.0 mi WNW 3.5 mph - N/A   Mostly Cloudy
2:46 PM 30.2 °F 26.7 °F 19.4 °F 64% 30.10 in 10.0 mi Variable 3.5 mph - N/A   Scattered Clouds
2:53 PM 30.9 °F 26.2 °F 19.9 °F 64% 30.22 in 10.0 mi Variable 4.6 mph - N/A   Scattered Clouds
3:53 PM 28.9 °F 23.9 °F 17.1 °F 61% 30.22 in 10.0 mi Variable 4.6 mph - N/A   Mostly Cloudy
4:53 PM 28.9 °F 22.8 °F 21.0 °F 72% 30.22 in 10.0 mi NW 5.8 mph - N/A   Mostly Cloudy
5:53 PM 28.0 °F 21.7 °F 18.0 °F 66% 30.23 in 10.0 mi Variable 5.8 mph - N/A   Mostly Cloudy
6:53 PM 26.1 °F 17.6 °F 15.1 °F 63% 30.25 in 10.0 mi NW 8.1 mph - N/A   Scattered Clouds
7:53 PM 25.0 °F 19.3 °F 16.0 °F 69% 30.27 in 10.0 mi NW 4.6 mph - N/A   Mostly Cloudy
8:53 PM 24.1 °F 18.2 °F 15.1 °F 69% 30.27 in 10.0 mi WNW 4.6 mph - N/A   Clear
9:53 PM 25.0 °F 19.3 °F 15.1 °F 66% 30.27 in 10.0 mi West 4.6 mph - N/A   Clear
10:53 PM 24.1 °F 19.7 °F 15.1 °F 69% 30.28 in 10.0 mi West 3.5 mph - N/A   Clear
11:53 PM 24.1 °F 19.7 °F 15.1 °F 69% 30.27 in 10.0 mi Variable 3.5 mph - N/A   Clear